Location: Bismarck
(46.7731°N, 100.8200°W)
Time: 10:54:08
(UTC-06:00)

ISS - All Passes

Search period start: 26 February 2017 00:00
Search period end: 08 March 2017 00:00
Orbit: 399 x 408 km, 51.6° (Epoch: 26 February)

Date Brightness Start Highest point End Pass type
(mag) Time Alt. Az. Time Alt. Az. Time Alt. Az.
26 Feb - 07:40:52 10° S 07:42:56 16° SE 07:44:59 10° E daylight
26 Feb - 09:15:40 10° WSW 09:18:59 87° SSE 09:22:18 10° ENE daylight
26 Feb - 10:52:36 10° WNW 10:55:42 36° N 10:58:47 10° ENE daylight
26 Feb - 12:29:28 10° WNW 12:32:37 41° NNE 12:35:47 10° E daylight
26 Feb - 14:05:57 10° WNW 14:09:12 57° SSW 14:12:26 10° SE daylight
27 Feb - 08:23:16 10° SW 08:26:29 53° SSE 08:29:44 10° ENE daylight
27 Feb - 09:59:52 10° W 10:03:02 42° NNW 10:06:13 10° ENE daylight
27 Feb - 11:36:53 10° WNW 11:39:58 35° N 11:43:03 10° ENE daylight
27 Feb - 13:13:23 10° WNW 13:16:42 87° NNE 13:20:00 10° ESE daylight
27 Feb - 14:50:35 10° W 14:52:48 17° SW 14:54:59 10° S daylight
28 Feb - 07:31:06 10° SSW 07:34:03 31° SE 07:37:01 10° ENE daylight
28 Feb - 09:07:09 10° W 09:10:25 56° NNW 09:13:40 10° ENE daylight
28 Feb - 10:44:13 10° WNW 10:47:16 33° N 10:50:19 10° ENE daylight
28 Feb - 12:20:51 10° WNW 12:24:08 59° NNE 12:27:23 10° ESE daylight
28 Feb - 13:57:33 10° W 14:00:26 28° SW 14:03:19 10° SSE daylight
01 Mar - 06:39:19 10° S 06:41:41 18° SE 06:44:04 10° E visible
01 Mar - 08:14:31 10° WSW 08:17:49 82° NNW 08:21:07 10° ENE daylight
01 Mar - 09:51:30 10° WNW 09:54:34 34° N 09:57:39 10° ENE daylight
01 Mar - 11:28:18 10° WNW 11:31:30 44° NNE 11:34:40 10° E daylight
01 Mar - 13:04:48 10° WNW 13:08:01 48° SSW 13:11:11 10° SE daylight
02 Mar - 05:48:39 10° SE 05:49:23 11° SE 05:50:07 10° ESE visible
02 Mar - 07:22:00 10° SW 07:25:16 63° SSE 07:28:33 10° ENE daylight
02 Mar - 08:58:44 10° W 09:01:52 39° NNW 09:05:01 10° ENE daylight
02 Mar - 10:35:41 10° WNW 10:38:48 36° N 10:41:54 10° ENE daylight
02 Mar - 12:12:11 10° WNW 12:15:29 81° SSW 12:18:47 10° ESE daylight
02 Mar - 13:49:40 10° W 13:51:30 14° SW 13:53:20 10° S daylight
03 Mar - 06:29:42 10° SSW 06:32:46 37° SE 06:35:51 10° ENE visible
03 Mar - 08:05:57 10° W 08:09:11 50° NNW 08:12:26 10° ENE daylight
03 Mar - 09:43:01 10° WNW 09:46:05 33° N 09:49:08 10° ENE daylight
03 Mar - 11:19:36 10° WNW 11:22:54 66° NNE 11:26:10 10° ESE daylight
03 Mar - 12:56:25 10° W 12:59:08 24° SW 13:01:51 10° SSE daylight
04 Mar - 05:37:44 10° S 05:40:20 22° SE 05:42:57 10° E visible
04 Mar - 07:13:14 10° WSW 07:16:32 72° NNW 07:19:51 10° ENE daylight
04 Mar - 08:50:16 10° WNW 08:53:20 34° N 08:56:24 10° ENE daylight
04 Mar - 10:27:01 10° WNW 10:30:14 47° NNE 10:33:27 10° E daylight
04 Mar - 12:03:33 10° WNW 12:06:42 41° SW 12:09:48 10° SE daylight
05 Mar - 04:46:26 10° SSE 04:47:58 13° SE 04:49:30 10° ESE visible
05 Mar - 06:20:39 10° SW 06:23:56 74° SSE 06:27:14 10° ENE visible
05 Mar - 07:57:28 10° W 08:00:35 37° N 08:03:42 10° ENE daylight
05 Mar - 09:34:23 10° WNW 09:37:31 38° N 09:40:39 10° E daylight
05 Mar - 11:10:52 10° WNW 11:14:09 69° SSW 11:17:26 10° SE daylight
05 Mar - 12:48:47 10° WSW 12:50:05 12° SW 12:51:23 10° SSW daylight
06 Mar - 05:28:14 10° SW 05:31:23 43° SE 05:34:33 10° ENE visible
06 Mar - 07:04:39 10° W 07:07:51 46° NNW 07:11:04 10° ENE daylight
06 Mar - 08:41:41 10° WNW 08:44:46 34° N 08:47:49 10° ENE daylight
06 Mar - 10:18:14 10° WNW 10:21:33 75° NNE 10:24:50 10° ESE daylight
06 Mar - 11:55:11 10° W 11:57:43 20° SW 12:00:13 10° S daylight
07 Mar - 04:36:06 10° SSW 04:38:53 25° SE 04:41:41 10° E visible
07 Mar - 06:11:53 10° WSW 06:15:09 64° NNW 06:18:27 10° ENE visible
07 Mar - 07:48:56 10° WNW 07:51:59 33° N 07:55:02 10° ENE daylight
07 Mar - 09:25:36 10° WNW 09:28:52 52° NNE 09:32:06 10° E daylight
07 Mar - 11:02:12 10° WNW 11:05:15 34° SW 11:08:16 10° SSE daylight
